| time (UTC) | temp F | wind direction | speed knots | gust knots | rain 1hr in | rain 24hr in | rain mn in | humidity % | barometer mb |
| 20260906073231 | 76 | 130 | 5.2 | 5.2 | 0.00 | 0.00 | 0.00 | 60 | 1017.0 |
| 20260906072727 | 77 | 141 | 3.5 | 5.2 | 0.00 | 0.00 | 0.00 | 59 | 1016.9 |
| 20260906072223 | 77 | 154 | 2.6 | 7.0 | 0.00 | 0.00 | 0.00 | 58 | 1016.9 |
| 20260906071718 | 77 | 151 | 3.5 | 7.0 | 0.00 | 0.00 | 0.00 | 58 | 1016.8 |
| 20260906071218 | 77 | 156 | 5.2 | 7.0 | 0.00 | 0.00 | 0.00 | 58 | 1017.0 |
| 20260906070715 | 77 | 151 | 6.1 | 7.8 | 0.00 | 0.00 | 0.00 | 58 | 1016.9 |
| 20260906070210 | 77 | 145 | 6.1 | 9.6 | 0.00 | 0.00 | 0.00 | 57 | 1016.9 |
| 20260906065704 | 77 | 154 | 3.5 | 8.7 | 0.00 | 0.00 | 0.00 | 57 | 1016.8 |
| 20260906065200 | 78 | 157 | 6.1 | 7.8 | 0.00 | 0.00 | 0.00 | 57 | 1016.8 |
| 20260906064655 | 78 | 145 | 6.1 | 7.8 | 0.00 | 0.00 | 0.00 | 56 | 1016.9 |
| 20260906064150 | 78 | 148 | 5.2 | 8.7 | 0.00 | 0.00 | 0.00 | 56 | 1016.8 |
| 20260906063645 | 78 | 154 | 5.2 | 8.7 | 0.00 | 0.00 | 0.00 | 55 | 1017.0 |
| 20260906063141 | 79 | 155 | 5.2 | 9.6 | 0.00 | 0.00 | 0.00 | 55 | 1017.0 |
| 20260906062637 | 79 | 140 | 5.2 | 9.6 | 0.00 | 0.00 | 0.00 | 55 | 1017.0 |
| 20260906062135 | 79 | 158 | 6.1 | 10.4 | 0.00 | 0.00 | 0.00 | 54 | 1016.9 |
| 20260906061632 | 80 | 149 | 7.0 | 10.4 | 0.00 | 0.00 | 0.00 | 54 | 1017.0 |
| 20260906061131 | 80 | 157 | 7.8 | 10.4 | 0.00 | 0.00 | 0.00 | 54 | 1016.9 |
| 20260906060627 | 79 | 151 | 7.0 | 11.3 | 0.00 | 0.00 | 0.00 | 54 | 1016.9 |
| 20260906060120 | 79 | 142 | 6.1 | 11.3 | 0.00 | 0.00 | 0.00 | 54 | 1017.0 |
| 20260906055615 | 79 | 154 | 6.1 | 10.4 | 0.00 | 0.00 | 0.00 | 54 | 1016.9 |
| 20260906055109 | 79 | 155 | 7.0 | 9.6 | 0.00 | 0.00 | 0.00 | 54 | 1016.9 |
| 20260906054605 | 79 | 150 | 6.1 | 11.3 | 0.00 | 0.00 | 0.00 | 54 | 1017.1 |
| 20260906054100 | 80 | 153 | 7.8 | 10.4 | 0.00 | 0.00 | 0.00 | 54 | 1016.9 |
| 20260906053556 | 80 | 145 | 5.2 | 11.3 | 0.00 | 0.00 | 0.00 | 54 | 1017.0 |
| 20260906053052 | 80 | 152 | 7.8 | 9.6 | 0.00 | 0.00 | 0.00 | 54 | 1017.0 |
| 20260906052547 | 80 | 160 | 6.1 | 11.3 | 0.00 | 0.00 | 0.00 | 53 | 1017.0 |
| 20260906052044 | 81 | 153 | 7.8 | 9.6 | 0.00 | 0.00 | 0.00 | 53 | 1017.0 |
| 20260906051539 | 81 | 148 | 7.0 | 11.3 | 0.00 | 0.00 | 0.00 | 52 | 1017.0 |
| 20260906051034 | 81 | 155 | 7.8 | 9.6 | 0.00 | 0.00 | 0.00 | 52 | 1016.8 |
| 20260906050530 | 81 | 148 | 6.1 | 9.6 | 0.00 | 0.00 | 0.00 | 52 | 1017.1 |
| 20260906050025 | 81 | 137 | 7.8 | 9.6 | 0.00 | 0.00 | 0.00 | 51 | 1017.0 |
| 20260906045523 | 82 | 141 | 7.0 | 9.6 | 0.00 | 0.00 | 0.00 | 51 | 1017.1 |
| 20260906045019 | 82 | 140 | 5.2 | 10.4 | 0.00 | 0.00 | 0.00 | 51 | 1016.9 |
| 20260906044514 | 82 | 142 | 7.0 | 10.4 | 0.00 | 0.00 | 0.00 | 51 | 1016.8 |
| 20260906044010 | 82 | 154 | 7.8 | 11.3 | 0.00 | 0.00 | 0.00 | 50 | 1016.8 |
| 20260906043505 | 82 | 154 | 7.0 | 10.4 | 0.00 | 0.00 | 0.00 | 50 | 1016.9 |
| 20260906043001 | 82 | 150 | 7.8 | 11.3 | 0.00 | 0.00 | 0.00 | 50 | 1016.9 |
| 20260906042500 | 82 | 155 | 7.0 | 10.4 | 0.00 | 0.00 | 0.00 | 50 | 1016.6 |
| 20260906041959 | 83 | 146 | 6.1 | 12.2 | 0.00 | 0.00 | 0.00 | 49 | 1016.8 |
| 20260906041456 | 83 | 149 | 9.6 | 13.0 | 0.00 | 0.00 | 0.00 | 49 | 1017.1 |
| 20260906040955 | 83 | 151 | 6.1 | 11.3 | 0.00 | 0.00 | 0.00 | 49 | 1017.1 |
| 20260906040450 | 83 | 156 | 7.0 | 9.6 | 0.00 | 0.00 | 0.00 | 49 | 1017.1 |
| 20260906035946 | 83 | 156 | 5.2 | 11.3 | 0.00 | 0.00 | 0.00 | 49 | 1017.1 |
| 20260906035441 | 83 | 159 | 8.7 | 10.4 | 0.00 | 0.00 | 0.00 | 48 | 1017.2 |
| 20260906034937 | 84 | 156 | 7.0 | 8.7 | 0.00 | 0.00 | 0.00 | 47 | 1017.2 |
| 20260906034431 | 84 | 159 | 7.8 | 7.8 | 0.00 | 0.00 | 0.00 | 47 | 1017.2 |
| 20260906033926 | 84 | 151 | 7.0 | 9.6 | 0.00 | 0.00 | 0.00 | 46 | 1017.1 |
| 20260906033421 | 85 | 155 | 5.2 | 9.6 | 0.00 | 0.00 | 0.00 | 45 | 1017.2 |
| 20260906032917 | 85 | 146 | 7.8 | 12.2 | 0.00 | 0.00 | 0.00 | 45 | 1017.1 |
| 20260906032413 | 85 | 146 | 5.2 | 9.6 | 0.00 | 0.00 | 0.00 | 45 | 1017.2 |
| 20260906031907 | 85 | 159 | 6.1 | 7.8 | 0.00 | 0.00 | 0.00 | 45 | 1016.8 |
| 20260906031402 | 86 | 154 | 6.1 | 11.3 | 0.00 | 0.00 | 0.00 | 44 | 1016.7 |
| 20260906030852 | 86 | 149 | 7.8 | 12.2 | 0.00 | 0.00 | 0.00 | 44 | 1016.6 |
| 20260906030346 | 85 | 154 | 7.8 | 10.4 | 0.00 | 0.00 | 0.00 | 46 | 1016.6 |
| 20260906025841 | 85 | 183 | 7.0 | 10.4 | 0.00 | 0.00 | 0.00 | 46 | 1016.5 |
| 20260906025335 | 85 | 175 | 5.2 | 9.6 | 0.00 | 0.00 | 0.00 | 46 | 1016.2 |
| 20260906024833 | 86 | 155 | 11.3 | 12.2 | 0.00 | 0.00 | 0.00 | 44 | 1016.6 |
| 20260906024328 | 87 | 173 | 7.8 | 15.6 | 0.00 | 0.00 | 0.00 | 42 | 1016.3 |
| 20260906023823 | 85 | 151 | 7.0 | 9.6 | 0.00 | 0.00 | 0.00 | 45 | 1016.5 |
| 20260906023319 | 84 | 219 | 7.8 | 9.6 | 0.00 | 0.00 | 0.00 | 47 | 1016.6 |
| 20260906022814 | 84 | 184 | 3.5 | 8.7 | 0.00 | 0.00 | 0.00 | 48 | 1016.5 |
| 20260906022309 | 85 | 213 | 6.1 | 9.6 | 0.00 | 0.00 | 0.00 | 45 | 1016.5 |
| 20260906021804 | 86 | 138 | 5.2 | 7.0 | 0.00 | 0.00 | 0.00 | 44 | 1016.2 |
| 20260906021258 | 86 | 161 | 4.3 | 7.0 | 0.00 | 0.00 | 0.00 | 44 | 1016.2 |
| 20260906020752 | 87 | 147 | 6.1 | 7.8 | 0.00 | 0.00 | 0.00 | 43 | 1016.2 |
| 20260906020247 | 87 | 151 | 3.5 | 6.1 | 0.00 | 0.00 | 0.00 | 43 | 1016.1 |
| 20260906015747 | 87 | 141 | 5.2 | 7.8 | 0.00 | 0.00 | 0.00 | 43 | 1016.0 |
| 20260906015245 | 87 | 140 | 6.1 | 8.7 | 0.00 | 0.00 | 0.00 | 44 | 1015.7 |
| 20260906014740 | 87 | 148 | 3.5 | 8.7 | 0.00 | 0.00 | 0.00 | 43 | 1015.6 |
| 20260906014236 | 87 | 144 | 3.5 | 9.6 | 0.00 | 0.00 | 0.00 | 43 | 1015.5 |
| 20260906013732 | 87 | 128 | 6.1 | 7.8 | 0.00 | 0.00 | 0.00 | 43 | 1015.5 |
| 20260906013231 | 88 | 140 | 7.0 | 9.6 | 0.00 | 0.00 | 0.00 | 43 | 1015.1 |
| 20260906012727 | 88 | 131 | 5.2 | 7.0 | 0.00 | 0.00 | 0.00 | 43 | 1015.2 |
| 20260906012222 | 88 | 114 | 3.5 | 10.4 | 0.00 | 0.00 | 0.00 | 43 | 1015.2 |
| 20260906011717 | 88 | 161 | 6.1 | 8.7 | 0.00 | 0.00 | 0.00 | 43 | 1015.0 |
| 20260906011212 | 89 | 114 | 7.0 | 9.6 | 0.00 | 0.00 | 0.00 | 42 | 1015.0 |
| 20260906010707 | 89 | 132 | 6.1 | 10.4 | 0.00 | 0.00 | 0.00 | 42 | 1015.0 |
| 20260906010203 | 89 | 140 | 3.5 | 6.1 | 0.00 | 0.00 | 0.00 | 42 | 1015.0 |
| 20260906005702 | 89 | 106 | 3.5 | 8.7 | 0.00 | 0.00 | 0.00 | 42 | 1015.1 |
| 20260906005157 | 89 | 134 | 5.2 | 8.7 | 0.00 | 0.00 | 0.00 | 42 | 1015.1 |
| 20260906004656 | 90 | 153 | 5.2 | 8.7 | 0.00 | 0.00 | 0.00 | 41 | 1014.9 |
| 20260906004151 | 90 | 146 | 5.2 | 8.7 | 0.00 | 0.00 | 0.00 | 41 | 1015.0 |
| 20260906003646 | 91 | 148 | 7.0 | 7.8 | 0.00 | 0.00 | 0.00 | 41 | 1015.0 |
| 20260906003142 | 91 | 138 | 7.0 | 9.6 | 0.00 | 0.00 | 0.00 | 40 | 1015.1 |
| 20260906002637 | 91 | 142 | 4.3 | 9.6 | 0.00 | 0.00 | 0.00 | 40 | 1014.8 |
| 20260906002131 | 91 | 146 | 3.5 | 10.4 | 0.00 | 0.00 | 0.00 | 39 | 1014.7 |
| 20260906001627 | 91 | 147 | 4.3 | 11.3 | 0.00 | 0.00 | 0.00 | 39 | 1014.9 |
| 20260906001126 | 92 | 139 | 6.1 | 11.3 | 0.00 | 0.00 | 0.00 | 38 | 1014.7 |
| 20260906000622 | 92 | 129 | 6.1 | 11.3 | 0.00 | 0.00 | 0.00 | 38 | 1014.9 |
| 20260906000118 | 92 | 153 | 7.8 | 14.8 | 0.00 | 0.00 | 0.00 | 38 | 1014.6 |
| 20260905235616 | 93 | 152 | 7.0 | 14.8 | 0.00 | 0.00 | 0.00 | 38 | 1014.3 |
| 20260905235111 | 93 | 142 | 7.0 | 13.9 | 0.00 | 0.00 | 0.00 | 37 | 1014.5 |
| 20260905234607 | 93 | 146 | 9.6 | 14.8 | 0.00 | 0.00 | 0.00 | 37 | 1014.3 |
| 20260905234101 | 93 | 147 | 9.6 | 13.9 | 0.00 | 0.00 | 0.00 | 37 | 1014.3 |
| 20260905233556 | 94 | 138 | 12.2 | 18.2 | 0.00 | 0.00 | 0.00 | 37 | 1014.1 |
| 20260905233051 | 95 | 145 | 9.6 | 13.9 | 0.00 | 0.00 | 0.00 | 36 | 1014.1 |
| 20260905232546 | 96 | 138 | 5.2 | 9.6 | 0.00 | 0.00 | 0.00 | 35 | 1014.1 |
| 20260905232042 | 96 | 143 | 7.0 | 13.0 | 0.00 | 0.00 | 0.00 | 33 | 1014.1 |
| 20260905231537 | 96 | 134 | 8.7 | 12.2 | 0.00 | 0.00 | 0.00 | 34 | 1013.9 |
| 20260905231033 | 97 | 154 | 8.7 | 9.6 | 0.00 | 0.00 | 0.00 | 32 | 1014.0 |
| 20260905230532 | 97 | 155 | 5.2 | 9.6 | 0.00 | 0.00 | 0.00 | 33 | 1013.9 |
| 20260905230030 | 98 | 168 | 7.0 | 9.6 | 0.00 | 0.00 | 0.00 | 32 | 1014.1 |
| 20260905225525 | 98 | 165 | 9.6 | 12.2 | 0.00 | 0.00 | 0.00 | 31 | 1013.9 |
| 20260905225020 | 97 | 168 | 6.1 | 10.4 | 0.00 | 0.00 | 0.00 | 33 | 1014.0 |
| 20260905224515 | 97 | 169 | 10.4 | 12.2 | 0.00 | 0.00 | 0.00 | 32 | 1014.0 |
| 20260905224015 | 96 | 153 | 4.3 | 9.6 | 0.00 | 0.00 | 0.00 | 34 | 1014.1 |
| 20260905223512 | 96 | 163 | 5.2 | 11.3 | 0.00 | 0.00 | 0.00 | 34 | 1014.0 |
| 20260905223007 | 97 | 138 | 6.1 | 8.7 | 0.00 | 0.00 | 0.00 | 34 | 1014.2 |
| 20260905222502 | 96 | 206 | 7.8 | 10.4 | 0.00 | 0.00 | 0.00 | 34 | 1014.2 |
| 20260905221957 | 96 | 161 | 7.8 | 11.3 | 0.00 | 0.00 | 0.00 | 33 | 1013.9 |
| 20260905221454 | 97 | 139 | 8.7 | 13.9 | 0.00 | 0.00 | 0.00 | 32 | 1014.1 |
| 20260905220950 | 96 | 162 | 7.8 | 12.2 | 0.00 | 0.00 | 0.00 | 33 | 1014.1 |
| 20260905220446 | 97 | 161 | 10.4 | 13.9 | 0.00 | 0.00 | 0.00 | 33 | 1014.1 |
| 20260905215944 | 97 | 166 | 8.7 | 13.0 | 0.00 | 0.00 | 0.00 | 33 | 1014.2 |
| 20260905215440 | 98 | 171 | 5.2 | 11.3 | 0.00 | 0.00 | 0.00 | 33 | 1014.5 |
| 20260905214937 | 98 | 156 | 8.7 | 14.8 | 0.00 | 0.00 | 0.00 | 33 | 1014.3 |
| 20260905214432 | 98 | 161 | 7.8 | 15.6 | 0.00 | 0.00 | 0.00 | 33 | 1014.3 |
| 20260905213931 | 96 | 161 | 6.1 | 12.2 | 0.00 | 0.00 | 0.00 | 34 | 1014.3 |
| 20260905213428 | 97 | 154 | 6.1 | 12.2 | 0.00 | 0.00 | 0.00 | 33 | 1014.5 |
| 20260905212923 | 100 | 182 | 7.0 | 15.6 | 0.00 | 0.00 | 0.00 | 32 | 1014.5 |
| 20260905212418 | 97 | 159 | 4.3 | 6.1 | 0.00 | 0.00 | 0.00 | 35 | 1014.7 |
| 20260905211917 | 97 | 143 | 5.2 | 8.7 | 0.00 | 0.00 | 0.00 | 36 | 1014.7 |
| 20260905211413 | 97 | 147 | 8.7 | 11.3 | 0.00 | 0.00 | 0.00 | 35 | 1014.8 |
| 20260905210909 | 95 | 169 | 5.2 | 7.8 | 0.00 | 0.00 | 0.00 | 36 | 1015.1 |
| 20260905210403 | 96 | 142 | 8.7 | 12.2 | 0.00 | 0.00 | 0.00 | 35 | 1014.9 |
| 20260905205903 | 97 | 164 | 7.8 | 11.3 | 0.00 | 0.00 | 0.00 | 35 | 1015.0 |
| 20260905205357 | 96 | 192 | 5.2 | 7.8 | 0.00 | 0.00 | 0.00 | 33 | 1015.1 |
| 20260905204856 | 97 | 149 | 7.0 | 12.2 | 0.00 | 0.00 | 0.00 | 34 | 1015.2 |
| 20260905204352 | 97 | 180 | 3.5 | 11.3 | 0.00 | 0.00 | 0.00 | 33 | 1015.5 |
| 20260905203845 | 97 | 136 | 5.2 | 10.4 | 0.00 | 0.00 | 0.00 | 34 | 1015.5 |
| 20260905203341 | 97 | 137 | 3.5 | 5.2 | 0.00 | 0.00 | 0.00 | 36 | 1015.2 |
| 20260905202837 | 97 | 164 | 10.4 | 14.8 | 0.00 | 0.00 | 0.00 | 34 | 1015.7 |
| 20260905202331 | 97 | 172 | 1.7 | 8.7 | 0.00 | 0.00 | 0.00 | 36 | 1015.5 |
| 20260905201827 | 96 | 158 | 9.6 | 13.0 | 0.00 | 0.00 | 0.00 | 35 | 1015.7 |
| 20260905201322 | 97 | 187 | 9.6 | 13.9 | 0.00 | 0.00 | 0.00 | 33 | 1015.7 |
| 20260905200817 | 96 | 192 | 3.5 | 11.3 | 0.00 | 0.00 | 0.00 | 35 | 1015.8 |
| 20260905200313 | 98 | 197 | 14.8 | 14.8 | 0.00 | 0.00 | 0.00 | 33 | 1015.9 |
| 20260905195810 | 96 | 167 | 6.1 | 7.8 | 0.00 | 0.00 | 0.00 | 36 | 1015.9 |
| 20260905195307 | 96 | 160 | 6.1 | 7.8 | 0.00 | 0.00 | 0.00 | 34 | 1016.0 |
| 20260905194802 | 96 | 157 | 4.3 | 10.4 | 0.00 | 0.00 | 0.00 | 36 | 1015.9 |
| 20260905194300 | 96 | 155 | 10.4 | 14.8 | 0.00 | 0.00 | 0.00 | 35 | 1016.1 |
| 20260905193755 | 95 | 177 | 1.7 | 6.1 | 0.00 | 0.00 | 0.00 | 37 | 1016.0 |
| 20260905193249 | 96 | 180 | 7.0 | 13.9 | 0.00 | 0.00 | 0.00 | 36 | 1016.1 |
| 20260905192745 | 95 | 152 | 7.0 | 11.3 | 0.00 | 0.00 | 0.00 | 36 | 1016.1 |
| 20260905192242 | 96 | 136 | 7.0 | 14.8 | 0.00 | 0.00 | 0.00 | 35 | 1016.3 |
| 20260905191740 | 96 | 160 | 7.0 | 12.2 | 0.00 | 0.00 | 0.00 | 38 | 1016.3 |
| 20260905191239 | 95 | 161 | 7.0 | 13.0 | 0.00 | 0.00 | 0.00 | 38 | 1016.5 |
| 20260905190738 | 95 | 148 | 9.6 | 11.3 | 0.00 | 0.00 | 0.00 | 37 | 1016.5 |
| 20260905190237 | 96 | 163 | 12.2 | 17.4 | 0.00 | 0.00 | 0.00 | 37 | 1016.5 |
| 20260905185736 | 95 | 168 | 7.0 | 13.0 | 0.00 | 0.00 | 0.00 | 37 | 1016.5 |
| 20260905185230 | 95 | 174 | 5.2 | 11.3 | 0.00 | 0.00 | 0.00 | 37 | 1016.8 |
| 20260905184725 | 95 | 179 | 10.4 | 13.9 | 0.00 | 0.00 | 0.00 | 38 | 1016.6 |
| 20260905184224 | 95 | 147 | 9.6 | 12.2 | 0.00 | 0.00 | 0.00 | 40 | 1016.7 |
| 20260905183718 | 96 | 200 | 10.4 | 14.8 | 0.00 | 0.00 | 0.00 | 37 | 1016.8 |
| 20260905183214 | 95 | 202 | 9.6 | 14.8 | 0.00 | 0.00 | 0.00 | 37 | 1016.8 |
| 20260905182712 | 93 | 156 | 7.8 | 13.0 | 0.00 | 0.00 | 0.00 | 40 | 1016.8 |
| 20260905182207 | 94 | 163 | 9.6 | 12.2 | 0.00 | 0.00 | 0.00 | 39 | 1017.0 |
| 20260905181702 | 94 | 171 | 7.8 | 11.3 | 0.00 | 0.00 | 0.00 | 40 | 1016.8 |
| 20260905181201 | 93 | 174 | 7.0 | 11.3 | 0.00 | 0.00 | 0.00 | 41 | 1017.2 |
| 20260905180655 | 93 | 165 | 7.8 | 13.0 | 0.00 | 0.00 | 0.00 | 41 | 1017.0 |
| 20260905180151 | 92 | 161 | 7.8 | 13.9 | 0.00 | 0.00 | 0.00 | 42 | 1017.1 |
| 20260905175649 | 92 | 172 | 7.8 | 13.9 | 0.00 | 0.00 | 0.00 | 42 | 1017.2 |
| 20260905175145 | 92 | 164 | 11.3 | 12.2 | 0.00 | 0.00 | 0.00 | 42 | 1017.5 |
| 20260905174641 | 92 | 201 | 7.8 | 15.6 | 0.00 | 0.00 | 0.00 | 43 | 1017.3 |
| 20260905174136 | 92 | 199 | 9.6 | 11.3 | 0.00 | 0.00 | 0.00 | 44 | 1017.3 |
| 20260905173632 | 91 | 204 | 5.2 | 15.6 | 0.00 | 0.00 | 0.00 | 45 | 1017.3 |
| 20260905173128 | 91 | 159 | 9.6 | 14.8 | 0.00 | 0.00 | 0.00 | 44 | 1017.6 |
| 20260905172626 | 91 | 180 | 9.6 | 13.0 | 0.00 | 0.00 | 0.00 | 44 | 1017.5 |
| 20260905172121 | 91 | 173 | 9.6 | 15.6 | 0.00 | 0.00 | 0.00 | 45 | 1017.5 |
| 20260905171618 | 91 | 183 | 9.6 | 13.9 | 0.00 | 0.00 | 0.00 | 45 | 1017.5 |
| 20260905171113 | 90 | 218 | 13.0 | 15.6 | 0.00 | 0.00 | 0.00 | 46 | 1017.6 |
| 20260905170605 | 90 | 172 | 9.6 | 13.9 | 0.00 | 0.00 | 0.00 | 46 | 1017.6 |
| 20260905170059 | 90 | 150 | 11.3 | 13.9 | 0.00 | 0.00 | 0.00 | 46 | 1017.3 |
| 20260905165554 | 89 | 199 | 9.6 | 12.2 | 0.00 | 0.00 | 0.00 | 47 | 1017.7 |
| 20260905165043 | 89 | 181 | 10.4 | 13.9 | 0.00 | 0.00 | 0.00 | 48 | 1017.7 |
| 20260905164538 | 88 | 173 | 9.6 | 12.2 | 0.00 | 0.00 | 0.00 | 49 | 1017.6 |
| 20260905164033 | 89 | 166 | 8.7 | 12.2 | 0.00 | 0.00 | 0.00 | 49 | 1017.5 |
| 20260905163529 | 87 | 157 | 9.6 | 12.2 | 0.00 | 0.00 | 0.00 | 51 | 1017.6 |
| 20260905163025 | 87 | 157 | 7.0 | 14.8 | 0.00 | 0.00 | 0.00 | 50 | 1017.6 |
| 20260905162520 | 87 | 194 | 7.8 | 15.6 | 0.00 | 0.00 | 0.00 | 50 | 1017.3 |
| 20260905162014 | 86 | 191 | 11.3 | 12.2 | 0.00 | 0.00 | 0.00 | 52 | 1017.2 |
| 20260905161509 | 86 | 191 | 9.6 | 14.8 | 0.00 | 0.00 | 0.00 | 52 | 1017.3 |
| 20260905161006 | 85 | 171 | 6.1 | 13.0 | 0.00 | 0.00 | 0.00 | 55 | 1017.6 |
| 20260905160459 | 85 | 180 | 7.8 | 13.0 | 0.00 | 0.00 | 0.00 | 55 | 1017.5 |
| 20260905155954 | 85 | 175 | 7.8 | 13.0 | 0.00 | 0.00 | 0.00 | 56 | 1017.3 |
| 20260905155449 | 84 | 196 | 4.3 | 13.9 | 0.00 | 0.00 | 0.00 | 58 | 1017.6 |
| 20260905154947 | 83 | 194 | 9.6 | 13.0 | 0.00 | 0.00 | 0.00 | 58 | 1017.6 |
| 20260905154443 | 83 | 166 | 9.6 | 12.2 | 0.00 | 0.00 | 0.00 | 59 | 1017.3 |
| 20260905153938 | 82 | 193 | 7.0 | 12.2 | 0.00 | 0.00 | 0.00 | 61 | 1017.7 |
| 20260905153435 | 83 | 200 | 11.3 | 14.8 | 0.00 | 0.00 | 0.00 | 59 | 1017.7 |
| 20260905152933 | 82 | 168 | 7.8 | 15.6 | 0.00 | 0.00 | 0.00 | 61 | 1017.6 |
| 20260905152433 | 81 | 206 | 9.6 | 14.8 | 0.00 | 0.00 | 0.00 | 63 | 1017.5 |
| 20260905151928 | 80 | 203 | 8.7 | 13.0 | 0.00 | 0.00 | 0.00 | 64 | 1017.6 |
| 20260905151424 | 80 | 182 | 7.8 | 12.2 | 0.00 | 0.00 | 0.00 | 63 | 1017.5 |
| 20260905150919 | 79 | 195 | 10.4 | 13.0 | 0.00 | 0.00 | 0.00 | 64 | 1017.7 |
| 20260905150418 | 79 | 182 | 7.8 | 12.2 | 0.00 | 0.00 | 0.00 | 65 | 1017.7 |
| 20260905145915 | 79 | 163 | 9.6 | 11.3 | 0.00 | 0.00 | 0.00 | 65 | 1017.6 |
| 20260905145410 | 79 | 173 | 7.8 | 11.3 | 0.00 | 0.00 | 0.00 | 66 | 1017.7 |
| 20260905144909 | 79 | 195 | 10.4 | 13.0 | 0.00 | 0.00 | 0.00 | 66 | 1017.6 |
| 20260905144405 | 78 | 202 | 8.7 | 11.3 | 0.00 | 0.00 | 0.00 | 66 | 1017.7 |
| 20260905143903 | 78 | 160 | 7.0 | 10.4 | 0.00 | 0.00 | 0.00 | 67 | 1017.6 |
| 20260905143357 | 78 | 164 | 8.7 | 11.3 | 0.00 | 0.00 | 0.00 | 68 | 1017.7 |
| 20260905142852 | 77 | 161 | 8.7 | 11.3 | 0.00 | 0.00 | 0.00 | 68 | 1017.6 |
| 20260905142350 | 77 | 175 | 9.6 | 10.4 | 0.00 | 0.00 | 0.00 | 68 | 1017.7 |
| 20260905141847 | 76 | 149 | 7.0 | 9.6 | 0.00 | 0.00 | 0.00 | 69 | 1017.7 |
| 20260905141342 | 76 | 146 | 7.0 | 10.4 | 0.00 | 0.00 | 0.00 | 70 | 1017.6 |
| 20260905140837 | 75 | 147 | 5.2 | 10.4 | 0.00 | 0.00 | 0.00 | 71 | 1017.9 |
| 20260905140332 | 75 | 146 | 7.0 | 7.0 | 0.00 | 0.00 | 0.00 | 71 | 1017.8 |
| 20260905135830 | 75 | 137 | 4.3 | 8.7 | 0.00 | 0.00 | 0.00 | 72 | 1017.8 |
| 20260905135326 | 74 | 141 | 4.3 | 7.8 | 0.00 | 0.00 | 0.00 | 73 | 1017.7 |
| 20260905134821 | 74 | 131 | 7.0 | 10.4 | 0.00 | 0.00 | 0.00 | 73 | 1017.7 |
| 20260905134314 | 74 | 148 | 5.2 | 9.6 | 0.00 | 0.00 | 0.00 | 74 | 1017.5 |
| 20260905133809 | 73 | 141 | 6.1 | 7.8 | 0.00 | 0.00 | 0.00 | 74 | 1017.1 |
| 20260905133305 | 73 | 145 | 5.2 | 8.7 | 0.00 | 0.00 | 0.00 | 75 | 1017.0 |
| 20260905132803 | 72 | 136 | 7.8 | 11.3 | 0.00 | 0.00 | 0.00 | 75 | 1017.3 |
| 20260905132259 | 72 | 153 | 5.2 | 11.3 | 0.00 | 0.00 | 0.00 | 76 | 1017.0 |
| 20260905131754 | 72 | 137 | 7.0 | 13.0 | 0.00 | 0.00 | 0.00 | 77 | 1017.1 |
| 20260905131249 | 72 | 130 | 7.8 | 10.4 | 0.00 | 0.00 | 0.00 | 77 | 1017.0 |
| 20260905130743 | 72 | 125 | 7.8 | 9.6 | 0.00 | 0.00 | 0.00 | 77 | 1017.0 |
| 20260905130237 | 71 | 137 | 7.0 | 11.3 | 0.00 | 0.00 | 0.00 | 77 | 1016.8 |
| 20260905125733 | 71 | 140 | 7.8 | 10.4 | 0.00 | 0.00 | 0.00 | 78 | 1016.6 |
| 20260905125228 | 71 | 144 | 7.8 | 11.3 | 0.00 | 0.00 | 0.00 | 78 | 1016.9 |
| 20260905124725 | 71 | 129 | 7.8 | 11.3 | 0.00 | 0.00 | 0.00 | 78 | 1016.8 |
| 20260905124220 | 71 | 133 | 4.3 | 7.0 | 0.00 | 0.00 | 0.00 | 80 | 1017.1 |
| 20260905123714 | 71 | 135 | 5.2 | 9.6 | 0.00 | 0.00 | 0.00 | 78 | 1016.7 |
| 20260905123212 | 72 | 146 | 7.0 | 11.3 | 0.00 | 0.00 | 0.00 | 77 | 1016.3 |
| 20260905122711 | 71 | 163 | 6.1 | 10.4 | 0.00 | 0.00 | 0.00 | 78 | 1016.7 |
| 20260905122205 | 72 | 152 | 7.8 | 10.4 | 0.00 | 0.00 | 0.00 | 77 | 1016.3 |
| 20260905121700 | 72 | 156 | 8.7 | 10.4 | 0.00 | 0.00 | 0.00 | 77 | 1016.6 |
| 20260905121156 | 71 | 148 | 6.1 | 8.7 | 0.00 | 0.00 | 0.00 | 78 | 1016.3 |
| 20260905120655 | 71 | 128 | 6.1 | 9.6 | 0.00 | 0.00 | 0.00 | 78 | 1016.3 |
| 20260905120149 | 72 | 141 | 4.3 | 7.0 | 0.00 | 0.00 | 0.00 | 77 | 1016.6 |
| 20260905115644 | 72 | 134 | 3.5 | 9.6 | 0.00 | 0.00 | 0.00 | 76 | 1016.5 |
| 20260905115139 | 72 | 145 | 7.0 | 7.8 | 0.00 | 0.00 | 0.00 | 76 | 1016.5 |
| 20260905114639 | 72 | 143 | 4.3 | 7.8 | 0.00 | 0.00 | 0.00 | 76 | 1016.5 |
| 20260905114137 | 72 | 131 | 5.2 | 7.8 | 0.00 | 0.00 | 0.00 | 77 | 1016.5 |
| 20260905113632 | 71 | 134 | 4.3 | 8.7 | 0.00 | 0.00 | 0.00 | 78 | 1016.6 |
| 20260905113127 | 71 | 136 | 5.2 | 6.1 | 0.00 | 0.00 | 0.00 | 80 | 1016.6 |
| 20260905112621 | 69 | 89 | 5.2 | 8.7 | 0.00 | 0.00 | 0.00 | 82 | 1016.6 |
| 20260905112117 | 69 | 105 | 7.0 | 8.7 | 0.00 | 0.00 | 0.00 | 82 | 1016.5 |
| 20260905111612 | 69 | 98 | 3.5 | 3.5 | 0.00 | 0.00 | 0.00 | 83 | 1016.5 |
| 20260905111111 | 69 | 35 | 0.0 | 0.0 | 0.00 | 0.00 | 0.00 | 84 | 1016.2 |
| 20260905110610 | 69 | 98 | 0.0 | 0.0 | 0.00 | 0.00 | 0.00 | 83 | 1016.2 |
| 20260905110106 | 68 | 80 | 0.0 | 0.9 | 0.00 | 0.00 | 0.00 | 83 | 1016.1 |
| 20260905105601 | 69 | 164 | 0.0 | 0.0 | 0.00 | 0.00 | 0.00 | 83 | 1016.1 |
| 20260905105100 | 69 | 155 | 0.0 | 2.6 | 0.00 | 0.00 | 0.00 | 83 | 1015.9 |
| 20260905104556 | 69 | 150 | 2.6 | 3.5 | 0.00 | 0.00 | 0.00 | 83 | 1015.9 |
| 20260905104055 | 69 | 166 | 2.6 | 3.5 | 0.00 | 0.00 | 0.00 | 82 | 1015.7 |
| 20260905103550 | 70 | 177 | 1.7 | 3.5 | 0.00 | 0.00 | 0.00 | 82 | 1015.8 |
| 20260905103047 | 70 | 181 | 3.5 | 3.5 | 0.00 | 0.00 | 0.00 | 82 | 1015.9 |
| 20260905102542 | 70 | 165 | 3.5 | 4.3 | 0.00 | 0.00 | 0.00 | 82 | 1015.8 |
| 20260905102039 | 69 | 157 | 3.5 | 3.5 | 0.00 | 0.00 | 0.00 | 82 | 1015.9 |
| 20260905101537 | 70 | 187 | 2.6 | 3.5 | 0.00 | 0.00 | 0.00 | 81 | 1016.0 |
| 20260905101035 | 70 | 182 | 2.6 | 3.5 | 0.00 | 0.00 | 0.00 | 81 | 1016.0 |
| 20260905100532 | 70 | 180 | 1.7 | 3.5 | 0.00 | 0.00 | 0.00 | 80 | 1016.0 |
| 20260905100032 | 70 | 160 | 3.5 | 3.5 | 0.00 | 0.00 | 0.00 | 79 | 1016.0 |
| 20260905095526 | 71 | 184 | 2.6 | 5.2 | 0.00 | 0.00 | 0.00 | 79 | 1015.9 |
| 20260905095021 | 70 | 175 | 3.5 | 3.5 | 0.00 | 0.00 | 0.00 | 79 | 1016.0 |
| 20260905094516 | 70 | 165 | 4.3 | 5.2 | 0.00 | 0.00 | 0.00 | 79 | 1016.1 |
| 20260905094015 | 70 | 171 | 2.6 | 4.3 | 0.00 | 0.00 | 0.00 | 80 | 1016.1 |
| 20260905093510 | 69 | 173 | 2.6 | 3.5 | 0.00 | 0.00 | 0.00 | 81 | 1016.3 |
| 20260905093006 | 69 | 186 | 1.7 | 2.6 | 0.00 | 0.00 | 0.00 | 81 | 1016.3 |
| 20260905092501 | 69 | 161 | 1.7 | 3.5 | 0.00 | 0.00 | 0.00 | 81 | 1016.3 |
| 20260905091951 | 69 | 162 | 1.7 | 2.6 | 0.00 | 0.00 | 0.00 | 80 | 1016.2 |
| 20260905091451 | 70 | 161 | 2.6 | 3.5 | 0.00 | 0.00 | 0.00 | 80 | 1016.2 |
| 20260905090950 | 70 | 180 | 2.6 | 3.5 | 0.00 | 0.00 | 0.00 | 80 | 1016.5 |
| 20260905090445 | 70 | 163 | 3.5 | 4.3 | 0.00 | 0.00 | 0.00 | 79 | 1016.1 |
| 20260905085944 | 70 | 164 | 2.6 | 3.5 | 0.00 | 0.00 | 0.00 | 78 | 1016.3 |
| 20260905085444 | 71 | 162 | 3.5 | 3.5 | 0.00 | 0.00 | 0.00 | 77 | 1016.2 |
| 20260905084940 | 72 | 165 | 3.5 | 4.3 | 0.00 | 0.00 | 0.00 | 75 | 1016.3 |
| 20260905084439 | 72 | 181 | 3.5 | 5.2 | 0.00 | 0.00 | 0.00 | 74 | 1016.2 |
| 20260905083934 | 72 | 178 | 3.5 | 5.2 | 0.00 | 0.00 | 0.00 | 74 | 1016.5 |
| 20260905083430 | 73 | 165 | 3.5 | 7.0 | 0.00 | 0.00 | 0.00 | 73 | 1016.2 |
| 20260905082925 | 73 | 166 | 4.3 | 6.1 | 0.00 | 0.00 | 0.00 | 72 | 1016.2 |
| 20260905082421 | 73 | 180 | 5.2 | 7.8 | 0.00 | 0.00 | 0.00 | 71 | 1016.1 |
| 20260905081916 | 74 | 184 | 6.1 | 7.0 | 0.00 | 0.00 | 0.00 | 70 | 1016.2 |
| 20260905081411 | 74 | 174 | 4.3 | 8.7 | 0.00 | 0.00 | 0.00 | 70 | 1016.3 |
| 20260905080910 | 74 | 172 | 5.2 | 8.7 | 0.00 | 0.00 | 0.00 | 69 | 1016.3 |
| 20260905080409 | 74 | 177 | 5.2 | 8.7 | 0.00 | 0.00 | 0.00 | 69 | 1016.1 |
| 20260905075909 | 75 | 180 | 5.2 | 9.6 | 0.00 | 0.00 | 0.00 | 68 | 1016.2 |
| 20260905075404 | 74 | 163 | 7.0 | 8.7 | 0.00 | 0.00 | 0.00 | 69 | 1016.2 |
| 20260905074903 | 74 | 177 | 6.1 | 8.7 | 0.00 | 0.00 | 0.00 | 69 | 1016.2 |
| 20260905074359 | 74 | 183 | 4.3 | 7.0 | 0.00 | 0.00 | 0.00 | 69 | 1016.2 |
| 20260905073854 | 75 | 191 | 6.1 | 8.7 | 0.00 | 0.00 | 0.00 | 69 | 1016.2 |